{"data":{"norad_id":57193,"epoch":"2026-05-25T03:47:43.358208Z","epoch_age_seconds":57787,"freshness":"FRESH","line1":"1 57193U 23091AD  26145.15814072  .00013129  00000+0  43436-3 0  9994","line2":"2 57193  97.5068 210.3444 0011179 171.7640 188.3786 15.31409278160924","mean_motion":15.31409278,"eccentricity":0.0011179,"inclination_deg":97.5068,"raan_deg":210.3444,"arg_perigee_deg":171.764,"mean_anomaly_deg":188.3786,"bstar":0.00043436,"rev_number":16092,"period_min":94.031035379427,"perigee_km":463.94943092816,"apogee_km":479.2640880256,"semimajor_km":6849.7437594769,"source":"CELESTRAK","updated_at":"2026-05-25T13:38:25.532804Z"}}